Location: Pallagorio
(39.3000°N, 16.9000°E)
Time: 19:08:48
(UTC+00:00)

USA 229 - Pass Details

Date: 24 January 2021
Orbit: 964 x 1248 km, 63.4° (Epoch: 03 March)

Event Time Altitude Azimuth Distance (km) Brightness Sun altitude
Rises 18:35:04 0° 324° (NW) 3,997 7.1 -29.2°
Reaches altitude 10° 18:37:43 10° 323° (NW) 3,071 6.5 -29.7°
Maximum altitude 18:45:07 75° 240° (WSW) 1,249 4.0 -31.1°
Enters shadow 18:47:29 48° 168° (SSE) 1,554 4.3 -31.6°
